Vertical_Velocity
-1 -1 1 1 0 -0 1 -1 -3 -2 -1 2 4 -1 -0 -1 -0 -1 4 -3 -1 -1
-0 -0 1 1 0 0 -1 0 -4 0 5 5 4 -1 1 -2 -1 1 0 1 1 -2
-1 0 1 1 -1 0 -4 -2 -1 4 4 1 -0 3 1 -0 -2 4 -1 0 1 0
-0 1 2 1 1 1 -1 -2 1 2 4 3 0 3 1 -2 1 2 -0 2 -1 1
1 2 4 3 -1 -1 1 -1 1 2 5 2 1 2 -3 -2 5 -2 -1 1 0 -2
1 -1 3 -2 0 -2 -1 -0 2 16 1 0 2 -3 -1 4 -1 0 0 -1 1 -2
-0 -1 1 -1 -1 -0 0 -1 12 -4 3 -0 0 -0 4 1 -1 1 -1 -3 0 -0
-0 2 -1 -0 1 1 -1 -6 1 1 -2 0 4 1 1 -2 0 -1 0 -2 1 0
1 -1 1 -0 -2 7 1 4 -1 2 -1 6 -0 0 -2 -0 -1 -0 -1 -1 3 1
4 2 -9 1 2 2 0 -1 1 3 4 -3 1 -3 -2 -2 -0 -1 0 1 1 -4
4 -4 -2 -1 3 -0 -0 4 4 1 -1 2 -2 -3 -0 -2 1 -0 1 -2 -1 -3
6 6 4 1 0 -1 0 1 2 4 1 -0 -2 2 0 1 -1 -2 -3 0 -1 1
1 2 0 -1 1 -1 3 4 3 0 2 -0 1 1 2 -2 -0 -4 0 -1 0 0
6 6 1 2 6 2 2 1 -1 1 -0 0 1 1 1 -2 -2 -2 2 0 1 -1
Height
5906 5908 5911 5914 5917 5919 5922 5925 5928 5933 5936 5939 5942 5943 5945 5945 5947 5946 5946 5946 5947 5945
5903 5905 5908 5911 5914 5916 5920 5923 5926 5931 5934 5937 5939 5941 5943 5945 5946 5946 5946 5947 5947 5946
5899 5902 5905 5908 5912 5915 5918 5922 5925 5928 5932 5935 5936 5940 5943 5945 5945 5945 5946 5946 5947 5947
5895 5899 5903 5907 5910 5913 5916 5920 5923 5927 5930 5932 5935 5940 5943 5943 5945 5945 5946 5946 5946 5947
5894 5897 5901 5905 5908 5910 5913 5917 5920 5922 5925 5930 5934 5939 5942 5943 5945 5945 5946 5946 5946 5946
5892 5896 5900 5902 5903 5907 5911 5913 5917 5917 5926 5931 5934 5938 5941 5943 5944 5945 5946 5947 5946 5944
5892 5895 5899 5901 5902 5904 5908 5912 5914 5920 5926 5930 5934 5938 5941 5943 5944 5945 5945 5947 5946 5944
5892 5895 5899 5901 5903 5904 5902 5911 5916 5922 5926 5931 5934 5938 5940 5941 5943 5944 5945 5946 5946 5945
5892 5894 5899 5902 5905 5908 5909 5914 5920 5924 5928 5932 5934 5937 5939 5941 5943 5943 5945 5945 5945 5944
5895 5896 5901 5905 5908 5911 5914 5918 5922 5925 5929 5931 5933 5936 5939 5940 5942 5943 5945 5944 5943 5942
5900 5901 5903 5906 5909 5914 5917 5920 5923 5927 5929 5932 5934 5936 5939 5940 5941 5943 5944 5943 5941 5941
5903 5905 5908 5910 5913 5916 5919 5921 5923 5926 5929 5932 5935 5936 5938 5939 5941 5942 5942 5941 5940 5939
5905 5907 5910 5913 5915 5918 5920 5922 5925 5927 5930 5932 5934 5935 5937 5938 5939 5940 5940 5939 5938 5936
5905 5908 5911 5913 5915 5918 5921 5923 5926 5928 5929 5932 5933 5934 5935 5937 5937 5938 5938 5937 5935 5934